Погода Пушкинские Горы

Погода Пушкинские Горы : погода сейчас, прогноз погоды и архив. Всё, что Вы хотите узнать о погоде Пушкинские Горы!

Хотите узнать прогноз погоды Пушкинские Горы? Тогда Вам сюда: Погода Пушкинские Горы

Поиск расширенной информации на нашем сайте:

Другие новости

Новости СМИ2

Главная страница сайта

Новости сайта

02.10.2013

Напоминаем, что на нашем новом сайте вы можете получить высокодетализированные прогнозы погоды по пунктам России, СНГ и мира (включающие важные для авиации метеовеличины, такие как направление и скорость ветра, видимость, явления погоды, количество и форма облачности, нижняя и верхняя граница облачности), а также ознакомиться с разнообразными материалами по авиационной метеорологии и подборкой полезных ссылок на эту тему.

Сайт Метеоцентр.Азия посвящён разработке технологий оптимизации авиаметеорологического обслуживания, включая проектирование и перспективное создание нескольких автоматизированных авиаметеорологических систем:
- система выпуска высокодетальных прогностических карт явлений погоды для нижнего воздушного пространства по России и ближнему зарубежью;
- система верификации прогнозов TAF (выпускаемых синоптиками официальных АМСГ РФ и ближнего зарубежья) и AUTOTAF (выпускаемых сайтом Метеоцентр.Азия) - выявление ошибок, онлайн-сопоставление с фактической погодой METAR, автоматическое внесение коррективов в прогнозы при резком отклонении фактической погоды от прогноза, подсчёт оправдываемости прогнозов по элементам и в целом;
- система обработки, анализа и отображения авиаметеорологической информации для применения провайдерами метеорологической информации.

Рекомендуем: Купить перила для лестниц http://www.artmetal-kovka.ru.

Погода Пушкинские Горы - сегодня

Время (UTC), дата Ветер
(°,м/с) 
Видим.   Явления Облачность Т
(°С)
Тd
(°С)
f(%) Тe
(°С)
Pmin
(гПа)
dP
(гПа)
Po
(мм)
O2
(г/м3)
Тmin Tmax R s Состояние
почвы
12 25.05.17 300 (СЗ) 20000 м    9/9 600 м кучево-дожд. 
[Cb cap]
+16.6 +7.1 53 +17  1011.3  0.2  749  283           
15 25.05.17 280 (З) 20000 м    9/9 600 м кучево-дожд. 
[Cb cap]
+18.1 +7.7 51 +19  1010.7  -0.5  749  282           
18 25.05.17 130 (ЮВ) 20000 м  {ливн. осадки}  6/3 600 м кучево-дожд., средняя 
[Cb cap|Ac trans]
+14.5 +10.4 76 +18  1010.6  -0.3  748  284    +19  0.0     
21 25.05.17 230 (ЮЗ) 20000 м    9/8 600 м кучево-дожд., средняя 
[Cb cap|Ac trans]
+13.1 +8.7 75 +14  1010.6  748  286           
00 26.05.17 210 (ЮЗ) 20000 м  {ливн. осадки}  9/9 600 м кучево-дожд. 
[Cb cap]
+10.8 +10.1 95 +13  1010.5  -0.2  748  288           
03 26.05.17 270 (З) 20000 м  в посл. час ливневой дождь  9/4 600 м кучево-дожд., верхняя 
[Cb cap|Ci fib]
+10.2 +9.3 94 +11  1011.1  0.5  749  289  +10.1       
06 26.05.17 280 (З) 20000 м  {ливн. осадки}  9/9 600 м кучево-дожд. 
[Cb cap]
+12 +8.1 77 +12  1012  749  288  +10.1      влажная 
09 26.05.17 310 (СЗ) 20000 м    9/9 600 м кучево-дожд. 
[Cb cap]
+14.4 +7.5 63 +15  1013.2  1.3  750  286           
12 26.05.17 300 (СЗ) 20000 м    9/9 600 м кучево-дожд. 
[Cb cap]
+17 +6.7 51 +17  1013.2  0.1  750  284           
21 26.05.17 тихо ()   20000 м    ясно 
+7.5 +5.9 90 +8  1015.8  1.1  752  294           
00 27.05.17 тихо ()   20000 м    3/0 верхняя 
[Ci fib]
+8.2 +5.9 85 +8  1017  1.2  753  294           
03 27.05.17 тихо ()   20000 м    9/0 средняя 
[Ac und]
+7.8 +6.5 91 +8  1018.1  1.1  754  294  +5.9         
09 27.05.17 280 (З) 20000 м    8/6 1000 м верхняя 
[Cu med, cong|Ci fib]
+17 +7.2 52 +18  1018.6  754  285           
12 27.05.17 290 (З) 20000 м    9/9 1000 м кучево-дожд. 
[Cb cap]
+18 +6.2 46 +19  1018.2  -0.4  754  284           
15 27.05.17 290 (З) 20000 м    9/9 1000 м кучево-дожд. 
[Cb cap]
+18.1 +6.6 47 +20  1017.3  -0.9  753  284           
21 27.05.17 280 (З) 20000 м    9/9 1000 м кучево-дожд. 
[Cb cap]
+13.1 +5.1 58 +14  1017.6  0.3  753  289           
00 28.05.17 180 (Ю) 20000 м    9/6 600 м кучево-дожд., средняя 
[Cb cap|Ac und]
+10.9 +6.9 76 +12  1016.8  -0.9  753  291           
03 28.05.17 280 (З) 20000 м    9/3 600 м кучево-дожд., средняя 
[Cb cap|Ac trans]
+9.7 +7.1 84 +11  1017.5  0.6  753  292  +9.4         
09 28.05.17 290 (З) 20000 м    9/9 600 м кучево-дожд. 
[Cb cap]
+16.7 +9.6 63 +19  1018  0.3  754  285           
21 28.05.17 220 (ЮЗ) 20000 м    4/0 верхняя 
[Ci fib]
+18 +12.5 70 +24  1010  -0.7  748  280           
00 29.05.17 230 (ЮЗ) н/о    н/о 
+17.4 +10.1 62 +20  1008.2  -1.8  747  281           
03 29.05.17 210 (ЮЗ) 2000 м    3/0 верхняя 
[Ci fib]
+16.6 +10.6 68 +19  1005.3  -2.9  744  281  +15.8         
06 29.05.17 190 (Ю) 4000 м  гроза, ливневой дождь  10/10 300 м кучево-дожд. 
[Cb cap]
+13.9 +13.3 96 +20  1005.1  -0.2  744  283  +13.9      мокрая 
09 29.05.17 230 (ЮЗ) 10 км  слаб. ливневой дождь{гроза}  10/10 300 м кучево-дожд. 
[Cb cap]
+18.5 +14.3 77 +27  1002.7  -1.8  743  277           
15 29.05.17 290 (З) 10 км    10/10 300 м кучево-дожд. 
[Cb cap]
+19.4 +13.8 70 +27  1004.6  1.3  744  277      13     
Время (UTC), дата Ветер
(°,м/с) 
Видим.   Явления Облачность Т
(°С)
Тd
(°С)
f(%) Тe
(°С)
Pmin
(гПа)
dP
(гПа)
Po
(мм)
O2
(г/м3)
Тmin Tmax R s Состояние
почвы

Для получения пояснительной информации подведите курсор к названию столбца.

ПОГОДА Пушкинские Горы - архив

Всё, что Вы хотите узнать о погоде Пушкинские Горы - удобно и подробно!

Выберите нужную дату (начиная с 1 января 2015* года) и нажмите кнопку "Найти".
Будут отображены архивные сводки погоды по пункту Пушкинские Горы, начиная с указанной даты.


Отображать данные в формате CSV (для использования в таблицах Excel)


Внимание! Наш архив погоды предназначен исключительно для личного некоммерческого использования в познавательных целях. Если Вам необходимы официальные справки о состоянии погоды (для производственных, юридических, коммерческих и т.п. целей), обращайтесь в органы Росгидромета.

*Примечание: данная дата относится к архиву по метеостанциям СССР (Россия, СНГ, Балтия).
Архив по метеостанциям Зарубежной Европы и Азии (кроме Китая) хранится 10 дней, по другим регионам земного шара (Китай, Африка, Америка, Австралия, Океания) - 1 день.

Пушкинские Горы - район местоположения метеостанции


Название, широта, долгота, высота метеостанции:
Пушкинские Горы 57°ш. 28.9°д. 108 м над ур. моря [Российская Федерация]

Дополнительная информация

В oтличие oт бoльшинства пoгoдных сайтoв мы публикуем пoдрoбную метеoинфoрмацию в детальнoм прoфессиoнальнoм фoрмате.

Характеристики температуры и влажнoсти вoздуха измеряются на высoте 2 м в тени вдали oт зданий и деревьев.
Скoрoсть ветра измеряется на высoте 10 м (на урoвне рoста челoвека скoрoсть ветра ниже в 1.5-2 раза). Если метеoстанция нахoдится в гoрoде или в лесу, тo скoрoсть ветра занижена на 2-4 м/с пo сравнению с oткрытым местoм. Скoрoсть ветра над акватoриями крупных рек и oзёр, а также на вершинах хoлмoв на 2-5 м/с выше, чем в oбычных услoвиях.
Атмoсфернoе давление в разных тoчках местнoсти мoжет значительнo oтличаться oт давления на метеoстанции, в зависимoсти oт услoвий рельефа (при пoдъёме на 10 м давление пoнижается примернo на 1 мм рт.ст.).